UAL1945 KIAH-KLAX

Flight info

Callsign UAL1945
Flight time 3h 4m
Altitude 34000
Route PITZZ5 CRGER DCT EWM J4 WLVRN DCT ESTWD HLYWD1
Aircraft B739/M-SDE2E3FGHIRWXY/LB1

Departure

Time 2026-04-21 20:04
Airport George Bush Intercontinental Airport (KIAH)

Arrival

Time 2026-04-21 23:08
Airport Los Angeles International Airport (KLAX)
Time Latitude Longitude Altitude Speed Heading
2026-04-21 19:47 29.98941 -95.34103 106 ft 0 kts 240°
2026-04-21 19:54 29.98946 -95.34093 104 ft 2 kts 241°
2026-04-21 19:54 29.98957 -95.34072 106 ft 2 kts 241°
2026-04-21 19:55 29.98964 -95.34054 106 ft 2 kts 257°
2026-04-21 19:55 29.98965 -95.34042 105 ft 2 kts 292°
2026-04-21 19:55 29.98957 -95.34025 104 ft 2 kts 305°
2026-04-21 19:55 29.98946 -95.34016 105 ft 1 kts 358°
2026-04-21 19:56 29.98944 -95.34016 104 ft 0 kts 359°
2026-04-21 19:57 29.98946 -95.34016 105 ft 2 kts 359°
2026-04-21 19:57 29.98987 -95.34016 106 ft 9 kts 359°
2026-04-21 19:58 29.99049 -95.34018 106 ft 9 kts 355°
2026-04-21 19:58 29.99088 -95.34064 106 ft 9 kts 278°
2026-04-21 19:58 29.99087 -95.34162 106 ft 15 kts 269°
2026-04-21 19:58 29.99085 -95.34298 106 ft 19 kts 270°
2026-04-21 19:59 29.99085 -95.34460 106 ft 21 kts 270°
2026-04-21 19:59 29.99085 -95.34630 106 ft 21 kts 270°
2026-04-21 19:59 29.99085 -95.34797 106 ft 20 kts 270°
2026-04-21 19:59 29.99089 -95.34958 106 ft 20 kts 272°
2026-04-21 20:00 29.99091 -95.35112 106 ft 19 kts 270°
2026-04-21 20:00 29.99091 -95.35263 106 ft 19 kts 270°
2026-04-21 20:00 29.99090 -95.35418 106 ft 21 kts 269°
2026-04-21 20:00 29.99083 -95.35589 106 ft 21 kts 273°
2026-04-21 20:01 29.99095 -95.35756 106 ft 21 kts 275°
2026-04-21 20:01 29.99089 -95.35919 106 ft 20 kts 254°
2026-04-21 20:01 29.99044 -95.36024 106 ft 11 kts 228°
2026-04-21 20:01 29.98985 -95.36030 106 ft 9 kts 156°
2026-04-21 20:02 29.98931 -95.35997 107 ft 8 kts 151°
2026-04-21 20:02 29.98886 -95.35971 105 ft 6 kts 162°
2026-04-21 20:02 29.98845 -95.35982 107 ft 6 kts 221°
2026-04-21 20:02 29.98823 -95.36025 106 ft 7 kts 241°
2026-04-21 20:03 29.98795 -95.36084 107 ft 11 kts 241°
2026-04-21 20:03 29.98757 -95.36125 107 ft 7 kts 171°
2026-04-21 20:03 29.98732 -95.36111 107 ft 4 kts 152°
2026-04-21 20:03 29.98572 -95.36013 108 ft 63 kts 152°
2026-04-21 20:04 29.97944 -95.35629 105 ft 138 kts 152°
2026-04-21 20:04 29.96925 -95.35009 254 ft 182 kts 151°
2026-04-21 20:04 29.95755 -95.34378 1103 ft 190 kts 164°
2026-04-21 20:04 29.94448 -95.34579 2105 ft 197 kts 207°
2026-04-21 20:05 29.93548 -95.35674 2958 ft 203 kts 226°
2026-04-21 20:05 29.92652 -95.37036 3286 ft 220 kts 227°
2026-04-21 20:05 29.91699 -95.38453 3872 ft 225 kts 227°
2026-04-21 20:05 29.90735 -95.39860 4582 ft 225 kts 228°
2026-04-21 20:06 29.89701 -95.41344 4844 ft 247 kts 228°
2026-04-21 20:06 29.88594 -95.42937 4961 ft 259 kts 231°
2026-04-21 20:06 29.87632 -95.44678 5243 ft 262 kts 237°
2026-04-21 20:06 29.86743 -95.46489 6179 ft 257 kts 239°
2026-04-21 20:07 29.85856 -95.48293 7006 ft 259 kts 240°
2026-04-21 20:07 29.84970 -95.50104 7769 ft 261 kts 241°
2026-04-21 20:07 29.84084 -95.51942 8501 ft 266 kts 242°
2026-04-21 20:07 29.83204 -95.53832 9183 ft 269 kts 249°
2026-04-21 20:08 29.82880 -95.55951 9913 ft 272 kts 272°
2026-04-21 20:08 29.83281 -95.58113 10396 ft 287 kts 291°
2026-04-21 20:08 29.84216 -95.60217 10556 ft 310 kts 297°
2026-04-21 20:08 29.85330 -95.62440 10731 ft 331 kts 298°
2026-04-21 20:09 29.86535 -95.64794 10965 ft 347 kts 298°
2026-04-21 20:09 29.87769 -95.67213 11507 ft 352 kts 298°
2026-04-21 20:09 29.89006 -95.69659 12171 ft 353 kts 297°
2026-04-21 20:09 29.90239 -95.72120 12832 ft 356 kts 297°
2026-04-21 20:10 29.91474 -95.74605 13433 ft 359 kts 297°
2026-04-21 20:10 29.92720 -95.77124 14039 ft 362 kts 297°
2026-04-21 20:10 29.93970 -95.79658 14589 ft 365 kts 297°
2026-04-21 20:10 29.95213 -95.82181 15113 ft 368 kts 297°
2026-04-21 20:11 29.96480 -95.84756 15664 ft 371 kts 297°
2026-04-21 20:11 29.97757 -95.87354 16242 ft 373 kts 297°
2026-04-21 20:11 29.99043 -95.89971 16723 ft 376 kts 297°
2026-04-21 20:11 30.00339 -95.92611 17207 ft 379 kts 297°
2026-04-21 20:12 30.01644 -95.95270 17676 ft 382 kts 297°
2026-04-21 20:12 30.02961 -95.97955 18135 ft 385 kts 297°
2026-04-21 20:12 30.04289 -96.00664 18566 ft 388 kts 297°
2026-04-21 20:12 30.05622 -96.03383 18958 ft 390 kts 297°
2026-04-21 20:13 30.06907 -96.06142 19374 ft 390 kts 291°
2026-04-21 20:13 30.07611 -96.09144 19781 ft 388 kts 278°
2026-04-21 20:13 30.08043 -96.12229 20200 ft 389 kts 278°
2026-04-21 20:13 30.08474 -96.15290 20579 ft 392 kts 278°
2026-04-21 20:14 30.08936 -96.18401 20969 ft 394 kts 279°
2026-04-21 20:14 30.09414 -96.21524 21416 ft 396 kts 279°
2026-04-21 20:14 30.09899 -96.24658 21832 ft 397 kts 279°
2026-04-21 20:14 30.10386 -96.27805 22211 ft 399 kts 279°
2026-04-21 20:15 30.10874 -96.30977 22604 ft 401 kts 279°
2026-04-21 20:15 30.11362 -96.34155 22997 ft 402 kts 279°
2026-04-21 20:15 30.11852 -96.37350 23384 ft 404 kts 279°
2026-04-21 20:15 30.12342 -96.40556 23729 ft 406 kts 279°
2026-04-21 20:16 30.12834 -96.43776 24062 ft 407 kts 279°
2026-04-21 20:16 30.13319 -96.46960 24403 ft 407 kts 279°
2026-04-21 20:16 30.13810 -96.50185 24760 ft 408 kts 279°
2026-04-21 20:16 30.14302 -96.53420 25112 ft 409 kts 279°
2026-04-21 20:17 30.14793 -96.56662 25447 ft 409 kts 279°
2026-04-21 20:17 30.15285 -96.59911 25791 ft 411 kts 279°
2026-04-21 20:17 30.15778 -96.63169 26127 ft 411 kts 279°
2026-04-21 20:17 30.16269 -96.66426 26475 ft 412 kts 279°
2026-04-21 20:18 30.16596 -96.68592 26702 ft 412 kts 279°
2026-04-21 20:18 30.17246 -96.72919 27130 ft 413 kts 279°
2026-04-21 20:18 30.17739 -96.76197 27444 ft 414 kts 279°
2026-04-21 20:18 30.18232 -96.79490 27756 ft 415 kts 279°
2026-04-21 20:19 30.18725 -96.82787 28050 ft 416 kts 279°
2026-04-21 20:19 30.19218 -96.86090 28343 ft 417 kts 279°
2026-04-21 20:19 30.19712 -96.89404 28629 ft 418 kts 279°
2026-04-21 20:19 30.20205 -96.92718 28972 ft 417 kts 279°
2026-04-21 20:20 30.20689 -96.95971 29420 ft 414 kts 279°
2026-04-21 20:20 30.21174 -96.99241 29948 ft 410 kts 279°
2026-04-21 20:20 30.21654 -97.02482 30427 ft 407 kts 278°
2026-04-21 20:20 30.22132 -97.05719 30765 ft 406 kts 278°
2026-04-21 20:21 30.22608 -97.08937 31048 ft 407 kts 278°
2026-04-21 20:21 30.23088 -97.12164 31365 ft 406 kts 278°
2026-04-21 20:21 30.23568 -97.15374 31707 ft 404 kts 278°
2026-04-21 20:21 30.24046 -97.18578 32024 ft 403 kts 278°
2026-04-21 20:22 30.24516 -97.21733 32289 ft 403 kts 278°
2026-04-21 20:22 30.25464 -97.28120 32875 ft 402 kts 278°
2026-04-21 20:22 30.25936 -97.31308 33167 ft 401 kts 278°
2026-04-21 20:23 30.26407 -97.34497 33400 ft 402 kts 278°
2026-04-21 20:23 30.26878 -97.37694 33606 ft 404 kts 278°
2026-04-21 20:23 30.27350 -97.40903 33837 ft 405 kts 278°
2026-04-21 20:23 30.27820 -97.44105 34113 ft 403 kts 278°
2026-04-21 20:24 30.28759 -97.50511 34188 ft 403 kts 278°
2026-04-21 20:24 30.29694 -97.56914 34200 ft 403 kts 278°
2026-04-21 20:25 30.30621 -97.63286 34205 ft 403 kts 278°
2026-04-21 20:25 30.31551 -97.69701 34202 ft 404 kts 278°
2026-04-21 20:26 30.32609 -97.76104 34208 ft 404 kts 282°
2026-04-21 20:26 30.33971 -97.82393 34204 ft 404 kts 282°
2026-04-21 20:27 30.35357 -97.88711 34217 ft 404 kts 282°
2026-04-21 20:27 30.36704 -97.95022 34222 ft 404 kts 282°
2026-04-21 20:28 30.38036 -98.01350 34225 ft 403 kts 282°
2026-04-21 20:28 30.39350 -98.07626 34226 ft 403 kts 282°
2026-04-21 20:29 30.40669 -98.13941 34210 ft 403 kts 282°
2026-04-21 20:29 30.41985 -98.20255 34202 ft 402 kts 282°
2026-04-21 20:30 30.43288 -98.26522 34210 ft 403 kts 282°
2026-04-21 20:30 30.44599 -98.32839 34210 ft 403 kts 282°
2026-04-21 20:31 30.45953 -98.39153 34218 ft 403 kts 282°
2026-04-21 20:31 30.47366 -98.45446 34209 ft 403 kts 283°
2026-04-21 20:32 30.48772 -98.51711 34202 ft 403 kts 282°
2026-04-21 20:32 30.50174 -98.58008 34192 ft 403 kts 282°
2026-04-21 20:33 30.51572 -98.64324 34183 ft 403 kts 282°
2026-04-21 20:33 30.52957 -98.70600 34176 ft 404 kts 282°
2026-04-21 20:34 30.54346 -98.76913 34178 ft 404 kts 282°
2026-04-21 20:34 30.55731 -98.83225 34181 ft 404 kts 282°
2026-04-21 20:35 30.57115 -98.89545 34177 ft 404 kts 282°
2026-04-21 20:35 30.58495 -98.95861 34165 ft 404 kts 282°
2026-04-21 20:36 30.59864 -99.02146 34165 ft 404 kts 282°
2026-04-21 20:36 30.61237 -99.08466 34157 ft 404 kts 282°
2026-04-21 20:37 30.62609 -99.14794 34150 ft 404 kts 282°
2026-04-21 20:37 30.63978 -99.21123 34157 ft 404 kts 282°
2026-04-21 20:38 30.65334 -99.27411 34142 ft 404 kts 282°
2026-04-21 20:38 30.66696 -99.33742 34145 ft 403 kts 282°
2026-04-21 20:39 30.68056 -99.40076 34160 ft 403 kts 282°
2026-04-21 20:39 30.69409 -99.46400 34141 ft 403 kts 282°
2026-04-21 20:40 30.70752 -99.52690 34155 ft 403 kts 282°
2026-04-21 20:40 30.72103 -99.59034 34150 ft 403 kts 282°
2026-04-21 20:41 30.73222 -99.64299 34166 ft 404 kts 282°
2026-04-21 20:41 30.74567 -99.70643 34152 ft 404 kts 282°
2026-04-21 20:42 30.76127 -99.78025 34149 ft 404 kts 282°
2026-04-21 20:42 30.77242 -99.83311 34155 ft 405 kts 282°
2026-04-21 20:43 30.78581 -99.89678 34141 ft 405 kts 282°
2026-04-21 20:43 30.79917 -99.96046 34127 ft 405 kts 282°
2026-04-21 20:44 30.81252 -100.02425 34121 ft 406 kts 281°
2026-04-21 20:44 30.82584 -100.08807 34125 ft 406 kts 281°
2026-04-21 20:45 30.83913 -100.15190 34121 ft 406 kts 281°
2026-04-21 20:45 30.85229 -100.21533 34121 ft 406 kts 281°
2026-04-21 20:46 30.86552 -100.27923 34117 ft 406 kts 281°
2026-04-21 20:46 30.87873 -100.34318 34119 ft 406 kts 281°
2026-04-21 20:47 30.89192 -100.40722 34112 ft 407 kts 281°
2026-04-21 20:47 30.90501 -100.47094 34120 ft 407 kts 281°
2026-04-21 20:48 30.91815 -100.53510 34111 ft 407 kts 281°
2026-04-21 20:48 30.93128 -100.59937 34113 ft 407 kts 281°
2026-04-21 20:49 30.94439 -100.66366 34103 ft 408 kts 281°
2026-04-21 20:49 30.95737 -100.72755 34109 ft 408 kts 281°
2026-04-21 20:50 30.97043 -100.79201 34107 ft 408 kts 281°
2026-04-21 20:50 30.98348 -100.85658 34105 ft 409 kts 281°
2026-04-21 20:51 30.99653 -100.92131 34105 ft 409 kts 281°
2026-04-21 20:51 31.00947 -100.98567 34115 ft 410 kts 281°
2026-04-21 20:52 31.02250 -101.05068 34115 ft 410 kts 281°
2026-04-21 20:52 31.03547 -101.11558 34117 ft 411 kts 281°
2026-04-21 20:53 31.04835 -101.18018 34115 ft 412 kts 281°
2026-04-21 20:53 31.06129 -101.24528 34111 ft 412 kts 281°
2026-04-21 20:54 31.07423 -101.31056 34103 ft 413 kts 281°
2026-04-21 20:54 31.08707 -101.37550 34107 ft 413 kts 281°
2026-04-21 20:55 31.09998 -101.44099 34099 ft 414 kts 281°
2026-04-21 20:55 31.11287 -101.50660 34097 ft 414 kts 281°
2026-04-21 20:56 31.12576 -101.57236 34096 ft 415 kts 281°
2026-04-21 20:56 31.13852 -101.63764 34090 ft 415 kts 281°
2026-04-21 20:57 31.15134 -101.70343 34097 ft 415 kts 281°
2026-04-21 20:57 31.16414 -101.76929 34087 ft 416 kts 281°
2026-04-21 20:58 31.17692 -101.83525 34084 ft 416 kts 281°
2026-04-21 20:58 31.18968 -101.90125 34083 ft 417 kts 281°
2026-04-21 20:59 31.20234 -101.96697 34078 ft 417 kts 281°
2026-04-21 20:59 31.21506 -102.03324 34071 ft 417 kts 281°
2026-04-21 21:00 31.22777 -102.09958 34063 ft 418 kts 281°
2026-04-21 21:00 31.24035 -102.16546 34062 ft 418 kts 281°
2026-04-21 21:01 31.25298 -102.23180 34057 ft 418 kts 281°
2026-04-21 21:01 31.26560 -102.29830 34055 ft 419 kts 281°
2026-04-21 21:02 31.27814 -102.36453 34041 ft 419 kts 280°
2026-04-21 21:02 31.29069 -102.43106 34039 ft 419 kts 280°
2026-04-21 21:03 31.30324 -102.49777 34032 ft 419 kts 280°
2026-04-21 21:03 31.31567 -102.56401 34021 ft 420 kts 280°
2026-04-21 21:04 31.32815 -102.63079 34019 ft 420 kts 280°
2026-04-21 21:04 31.34061 -102.69762 34010 ft 421 kts 280°
2026-04-21 21:05 31.35306 -102.76459 34008 ft 421 kts 280°
2026-04-21 21:05 31.36548 -102.83163 34003 ft 421 kts 280°
2026-04-21 21:06 31.37788 -102.89873 33995 ft 422 kts 280°
2026-04-21 21:06 31.39018 -102.96552 33994 ft 422 kts 280°
2026-04-21 21:07 31.40253 -103.03282 33993 ft 423 kts 280°
2026-04-21 21:07 31.41486 -103.10020 33990 ft 423 kts 280°
2026-04-21 21:08 31.42711 -103.16731 34000 ft 424 kts 280°
2026-04-21 21:08 31.43941 -103.23494 34017 ft 424 kts 280°
2026-04-21 21:09 31.45168 -103.30261 34029 ft 425 kts 280°
2026-04-21 21:09 31.46386 -103.37001 34047 ft 425 kts 280°
2026-04-21 21:10 31.47607 -103.43778 34056 ft 425 kts 280°
2026-04-21 21:10 31.48826 -103.50566 34057 ft 425 kts 280°
2026-04-21 21:11 31.50044 -103.57371 34050 ft 426 kts 280°
2026-04-21 21:11 31.51250 -103.64128 34037 ft 426 kts 280°
2026-04-21 21:12 31.52460 -103.70931 34016 ft 426 kts 280°
2026-04-21 21:12 31.53668 -103.77745 33992 ft 427 kts 280°
2026-04-21 21:13 31.54874 -103.84571 33976 ft 427 kts 280°
2026-04-21 21:13 31.56069 -103.91353 33965 ft 428 kts 280°
2026-04-21 21:14 31.57270 -103.98194 33968 ft 428 kts 280°
2026-04-21 21:14 31.58469 -104.05049 33966 ft 429 kts 280°
2026-04-21 21:15 31.59658 -104.11866 33968 ft 429 kts 280°
2026-04-21 21:15 31.60853 -104.18741 33967 ft 429 kts 280°
2026-04-21 21:16 31.62037 -104.25576 33966 ft 430 kts 280°
2026-04-21 21:16 31.63227 -104.32467 33967 ft 430 kts 280°
2026-04-21 21:17 31.64413 -104.39355 33964 ft 431 kts 280°
2026-04-21 21:17 31.65595 -104.46248 33962 ft 431 kts 280°
2026-04-21 21:18 31.66774 -104.53148 33963 ft 431 kts 280°
2026-04-21 21:18 31.67951 -104.60058 33962 ft 431 kts 280°
2026-04-21 21:19 31.69116 -104.66922 33961 ft 431 kts 280°
2026-04-21 21:19 31.70286 -104.73835 33962 ft 432 kts 280°
2026-04-21 21:20 31.71455 -104.80765 33963 ft 432 kts 280°
2026-04-21 21:20 31.72612 -104.87655 33954 ft 433 kts 280°
2026-04-21 21:21 31.73775 -104.94601 33952 ft 433 kts 280°
2026-04-21 21:21 31.74934 -105.01548 33950 ft 433 kts 280°
2026-04-21 21:22 31.76092 -105.08509 33946 ft 433 kts 280°
2026-04-21 21:22 31.77246 -105.15474 33937 ft 434 kts 280°
2026-04-21 21:23 31.78388 -105.22390 33940 ft 434 kts 280°
2026-04-21 21:23 31.79534 -105.29361 33938 ft 434 kts 280°
2026-04-21 21:24 31.80679 -105.36344 33943 ft 435 kts 280°
2026-04-21 21:24 31.81821 -105.43332 33944 ft 435 kts 280°
2026-04-21 21:25 31.82951 -105.50279 33936 ft 435 kts 279°
2026-04-21 21:25 31.84087 -105.57280 33944 ft 436 kts 279°
2026-04-21 21:26 31.85220 -105.64291 33941 ft 436 kts 279°
2026-04-21 21:26 31.86349 -105.71309 33942 ft 436 kts 279°
2026-04-21 21:27 31.87468 -105.78284 33941 ft 436 kts 279°
2026-04-21 21:27 31.88591 -105.85305 33938 ft 436 kts 279°
2026-04-21 21:28 31.89708 -105.92321 33936 ft 436 kts 279°
2026-04-21 21:29 31.91378 -106.02857 33961 ft 436 kts 279°
2026-04-21 21:29 31.92481 -106.09849 33992 ft 436 kts 279°
2026-04-21 21:30 31.93580 -106.16843 34023 ft 436 kts 279°
2026-04-21 21:30 31.94681 -106.23870 34051 ft 436 kts 279°
2026-04-21 21:31 31.95721 -106.30909 34071 ft 436 kts 277°
2026-04-21 21:31 31.96534 -106.37942 34076 ft 435 kts 276°
2026-04-21 21:32 31.97317 -106.45023 34061 ft 436 kts 276°
2026-04-21 21:32 31.98120 -106.52102 34041 ft 435 kts 276°
2026-04-21 21:33 31.98929 -106.59133 34069 ft 436 kts 276°
2026-04-21 21:33 31.99746 -106.66217 34089 ft 436 kts 277°
2026-04-21 21:34 32.00561 -106.73317 34078 ft 436 kts 277°
2026-04-21 21:34 32.01365 -106.80365 34066 ft 436 kts 276°
2026-04-21 21:35 32.02169 -106.87447 34035 ft 436 kts 277°
2026-04-21 21:35 32.02836 -106.93346 34001 ft 436 kts 276°
2026-04-21 21:36 32.03631 -107.00422 34001 ft 435 kts 276°
2026-04-21 21:36 32.04423 -107.07497 33986 ft 435 kts 276°
2026-04-21 21:37 32.05205 -107.14523 33970 ft 434 kts 276°
2026-04-21 21:37 32.05988 -107.21589 33950 ft 434 kts 276°
2026-04-21 21:38 32.06765 -107.28644 33926 ft 433 kts 276°
2026-04-21 21:38 32.07533 -107.35655 33927 ft 433 kts 276°
2026-04-21 21:39 32.08301 -107.42698 33970 ft 432 kts 276°
2026-04-21 21:39 32.09064 -107.49731 34010 ft 432 kts 276°
2026-04-21 21:40 32.09817 -107.56712 34037 ft 432 kts 276°
2026-04-21 21:40 32.10571 -107.63742 34076 ft 432 kts 276°
2026-04-21 21:41 32.11322 -107.70781 34075 ft 432 kts 276°
2026-04-21 21:41 32.12067 -107.77793 34087 ft 432 kts 276°
2026-04-21 21:42 32.12810 -107.84827 34072 ft 432 kts 276°
2026-04-21 21:42 32.13550 -107.91875 34037 ft 432 kts 276°
2026-04-21 21:43 32.14286 -107.98922 34015 ft 432 kts 277°
2026-04-21 21:43 32.15019 -108.05970 33981 ft 432 kts 277°
2026-04-21 21:44 32.15742 -108.12973 33946 ft 432 kts 277°
2026-04-21 21:44 32.16467 -108.20024 33945 ft 432 kts 277°
2026-04-21 21:45 32.17182 -108.27023 33949 ft 432 kts 277°
2026-04-21 21:45 32.17897 -108.34065 33962 ft 431 kts 277°
2026-04-21 21:46 32.18607 -108.41089 33999 ft 431 kts 277°
2026-04-21 21:46 32.19313 -108.48110 34034 ft 430 kts 277°
2026-04-21 21:47 32.20009 -108.55075 34065 ft 429 kts 277°
2026-04-21 21:47 32.20705 -108.62081 34082 ft 428 kts 277°
2026-04-21 21:48 32.21391 -108.69025 34100 ft 427 kts 277°
2026-04-21 21:48 32.22076 -108.76003 34095 ft 427 kts 277°
2026-04-21 21:49 32.22756 -108.82966 34075 ft 426 kts 277°
2026-04-21 21:49 32.23427 -108.89880 34042 ft 425 kts 277°
2026-04-21 21:50 32.24098 -108.96826 34007 ft 425 kts 277°
2026-04-21 21:50 32.24763 -109.03766 33978 ft 424 kts 277°
2026-04-21 21:51 32.25420 -109.10644 33934 ft 424 kts 277°
2026-04-21 21:51 32.26077 -109.17563 33934 ft 424 kts 277°
2026-04-21 21:52 32.26760 -109.24486 33928 ft 423 kts 281°
2026-04-21 21:52 32.28487 -109.31096 33936 ft 421 kts 292°
2026-04-21 21:53 32.30768 -109.37484 33926 ft 422 kts 293°
2026-04-21 21:53 32.33031 -109.43848 33933 ft 421 kts 292°
2026-04-21 21:54 32.35281 -109.50256 33936 ft 422 kts 292°
2026-04-21 21:54 32.37505 -109.56635 33932 ft 422 kts 292°
2026-04-21 21:55 32.39739 -109.63062 33934 ft 422 kts 292°
2026-04-21 21:55 32.41969 -109.69493 33939 ft 422 kts 292°
2026-04-21 21:56 32.44179 -109.75879 33946 ft 421 kts 292°
2026-04-21 21:56 32.46401 -109.82312 33946 ft 421 kts 292°
2026-04-21 21:57 32.48620 -109.88746 33953 ft 421 kts 292°
2026-04-21 21:57 32.50820 -109.95139 33971 ft 421 kts 292°
2026-04-21 21:58 32.53027 -110.01563 33975 ft 420 kts 292°
2026-04-21 21:58 32.55228 -110.07985 33980 ft 420 kts 292°
2026-04-21 21:59 32.57422 -110.14396 33989 ft 419 kts 292°
2026-04-21 21:59 32.59607 -110.20795 33991 ft 418 kts 292°
2026-04-21 22:00 32.61771 -110.27147 33992 ft 417 kts 292°
2026-04-21 22:00 32.63943 -110.33533 33985 ft 417 kts 292°
2026-04-21 22:01 32.66112 -110.39922 33977 ft 416 kts 292°
2026-04-21 22:01 32.68276 -110.46310 33977 ft 416 kts 292°
2026-04-21 22:02 32.70418 -110.52645 33976 ft 416 kts 291°
2026-04-21 22:02 32.72570 -110.59026 33985 ft 415 kts 291°
2026-04-21 22:03 32.74721 -110.65411 33977 ft 416 kts 291°
2026-04-21 22:03 32.76869 -110.71801 33975 ft 416 kts 291°
2026-04-21 22:04 32.78999 -110.78150 33980 ft 416 kts 291°
2026-04-21 22:04 32.81141 -110.84550 33965 ft 416 kts 291°
2026-04-21 22:05 32.83284 -110.90963 33968 ft 417 kts 291°
2026-04-21 22:05 32.85409 -110.97337 33972 ft 417 kts 291°
2026-04-21 22:06 32.87549 -111.03768 33963 ft 418 kts 291°
2026-04-21 22:06 32.89690 -111.10216 33964 ft 419 kts 291°
2026-04-21 22:07 32.91830 -111.16672 33967 ft 419 kts 291°
2026-04-21 22:07 32.93954 -111.23093 33957 ft 420 kts 291°
2026-04-21 22:08 32.96090 -111.29564 33957 ft 419 kts 290°
2026-04-21 22:08 32.98221 -111.36036 33953 ft 419 kts 290°
2026-04-21 22:09 33.00343 -111.42491 33956 ft 418 kts 290°
2026-04-21 22:09 33.02457 -111.48933 33960 ft 417 kts 290°
2026-04-21 22:10 33.04563 -111.55366 33969 ft 416 kts 290°
2026-04-21 22:10 33.06658 -111.61779 33968 ft 415 kts 290°
2026-04-21 22:11 33.08747 -111.68187 33970 ft 414 kts 290°
2026-04-21 22:11 33.10818 -111.74553 33971 ft 414 kts 290°
2026-04-21 22:12 33.12902 -111.80969 33959 ft 414 kts 290°
2026-04-21 22:12 33.14982 -111.87390 33958 ft 414 kts 290°
2026-04-21 22:13 33.17058 -111.93808 33956 ft 415 kts 289°
2026-04-21 22:13 33.19135 -112.00244 33952 ft 415 kts 289°
2026-04-21 22:14 33.21209 -112.06685 33944 ft 416 kts 289°
2026-04-21 22:14 33.23270 -112.13100 33917 ft 416 kts 289°
2026-04-21 22:15 33.25343 -112.19561 33940 ft 417 kts 289°
2026-04-21 22:15 33.27416 -112.26039 33952 ft 417 kts 289°
2026-04-21 22:16 33.29482 -112.32508 33940 ft 416 kts 289°
2026-04-21 22:16 33.31546 -112.38985 33972 ft 418 kts 289°
2026-04-21 22:17 33.33601 -112.45449 33961 ft 419 kts 289°
2026-04-21 22:17 33.35672 -112.51974 33954 ft 420 kts 289°
2026-04-21 22:18 33.37740 -112.58504 33958 ft 420 kts 289°
2026-04-21 22:18 33.39806 -112.65040 33962 ft 420 kts 288°
2026-04-21 22:19 33.41866 -112.71576 33964 ft 419 kts 288°
2026-04-21 22:19 33.43923 -112.78111 33961 ft 419 kts 288°
2026-04-21 22:20 33.45997 -112.84631 33958 ft 419 kts 290°
2026-04-21 22:20 33.48299 -112.91058 33943 ft 420 kts 291°
2026-04-21 22:21 33.50634 -112.97419 33935 ft 420 kts 291°
2026-04-21 22:21 33.52960 -113.03842 33940 ft 420 kts 290°
2026-04-21 22:22 33.55265 -113.10273 33948 ft 420 kts 290°
2026-04-21 22:22 33.57567 -113.16726 33937 ft 421 kts 290°
2026-04-21 22:23 33.59868 -113.23193 33995 ft 421 kts 290°
2026-04-21 22:23 33.62154 -113.29625 34044 ft 422 kts 290°
2026-04-21 22:24 33.64452 -113.36106 34091 ft 422 kts 290°
2026-04-21 22:24 33.66748 -113.42593 34126 ft 422 kts 290°
2026-04-21 22:25 33.69042 -113.49089 34150 ft 423 kts 290°
2026-04-21 22:25 33.71336 -113.55598 34152 ft 423 kts 289°
2026-04-21 22:26 33.73628 -113.62114 34129 ft 424 kts 289°
2026-04-21 22:26 33.75923 -113.68650 34090 ft 424 kts 289°
2026-04-21 22:27 33.78201 -113.75151 34045 ft 425 kts 289°
2026-04-21 22:27 33.80496 -113.81727 33987 ft 426 kts 289°
2026-04-21 22:28 33.82735 -113.88328 33933 ft 426 kts 288°
2026-04-21 22:28 33.84583 -113.93820 33914 ft 426 kts 288°
2026-04-21 22:29 33.86810 -114.00432 33914 ft 426 kts 288°
2026-04-21 22:29 33.89402 -114.08128 33908 ft 426 kts 288°
2026-04-21 22:30 33.91059 -114.13739 33904 ft 423 kts 280°
2026-04-21 22:30 33.92229 -114.20657 33910 ft 421 kts 277°
2026-04-21 22:31 33.93302 -114.27557 33902 ft 422 kts 277°
2026-04-21 22:31 33.94433 -114.34500 33900 ft 423 kts 278°
2026-04-21 22:32 33.95598 -114.41454 33894 ft 423 kts 278°
2026-04-21 22:32 33.96772 -114.48423 33893 ft 424 kts 278°
2026-04-21 22:33 33.97940 -114.55387 33895 ft 424 kts 278°
2026-04-21 22:33 33.99097 -114.62315 33894 ft 425 kts 278°
2026-04-21 22:34 34.00258 -114.69298 33898 ft 425 kts 277°
2026-04-21 22:34 34.01419 -114.76304 33888 ft 425 kts 277°
2026-04-21 22:35 34.02575 -114.83304 33896 ft 425 kts 277°
2026-04-21 22:35 34.03726 -114.90303 33891 ft 425 kts 277°
2026-04-21 22:36 34.05436 -115.00743 33892 ft 425 kts 277°
2026-04-21 22:36 34.06577 -115.07743 33891 ft 425 kts 277°
2026-04-21 22:37 34.07716 -115.14749 33886 ft 426 kts 277°
2026-04-21 22:37 34.08854 -115.21776 33888 ft 427 kts 277°
2026-04-21 22:38 34.09994 -115.28839 33882 ft 429 kts 277°
2026-04-21 22:38 34.11130 -115.35908 33883 ft 429 kts 277°
2026-04-21 22:39 34.12257 -115.42946 33885 ft 430 kts 277°
2026-04-21 22:39 34.13388 -115.50031 33894 ft 430 kts 276°
2026-04-21 22:40 34.14515 -115.57123 33886 ft 430 kts 277°
2026-04-21 22:40 34.15638 -115.64216 33896 ft 430 kts 276°
2026-04-21 22:41 34.16292 -115.71284 33890 ft 421 kts 261°
2026-04-21 22:41 34.15555 -115.78273 33912 ft 419 kts 259°
2026-04-21 22:42 34.14817 -115.85257 33931 ft 419 kts 260°
2026-04-21 22:42 34.14130 -115.92247 33957 ft 418 kts 260°
2026-04-21 22:43 34.13451 -115.99229 33973 ft 418 kts 260°
2026-04-21 22:43 34.12864 -116.02608 33974 ft 413 kts 246°
2026-04-21 22:43 34.11462 -116.05601 33981 ft 411 kts 230°
2026-04-21 22:44 34.09361 -116.07961 33821 ft 417 kts 217°
2026-04-21 22:44 34.06909 -116.09870 33612 ft 420 kts 212°
2026-04-21 22:44 34.04385 -116.11649 33393 ft 419 kts 211°
2026-04-21 22:44 34.01846 -116.13381 33165 ft 419 kts 211°
2026-04-21 22:45 33.99328 -116.15080 32956 ft 420 kts 211°
2026-04-21 22:45 33.96739 -116.16819 32726 ft 421 kts 211°
2026-04-21 22:45 33.94173 -116.18539 32426 ft 424 kts 211°
2026-04-21 22:45 33.91613 -116.20256 32051 ft 429 kts 211°
2026-04-21 22:46 33.89008 -116.22007 31679 ft 428 kts 211°
2026-04-21 22:46 33.86425 -116.23751 31244 ft 422 kts 212°
2026-04-21 22:46 33.84148 -116.25931 30779 ft 415 kts 229°
2026-04-21 22:46 33.82585 -116.28820 30363 ft 412 kts 245°
2026-04-21 22:47 33.81788 -116.32136 29955 ft 414 kts 257°
2026-04-21 22:47 33.81351 -116.35561 29464 ft 414 kts 259°
2026-04-21 22:47 33.81002 -116.38994 28976 ft 413 kts 261°
2026-04-21 22:47 33.80680 -116.42419 28490 ft 411 kts 261°
2026-04-21 22:48 33.80365 -116.45839 28022 ft 410 kts 261°
2026-04-21 22:48 33.80055 -116.49243 27556 ft 409 kts 261°
2026-04-21 22:48 33.79752 -116.52594 27103 ft 407 kts 261°
2026-04-21 22:48 33.79449 -116.55958 26660 ft 402 kts 261°
2026-04-21 22:49 33.79149 -116.59285 26196 ft 397 kts 261°
2026-04-21 22:49 33.78855 -116.62552 25713 ft 391 kts 261°
2026-04-21 22:49 33.78564 -116.65791 25238 ft 387 kts 261°
2026-04-21 22:49 33.78276 -116.68996 24744 ft 384 kts 261°
2026-04-21 22:50 33.78271 -116.72165 24238 ft 387 kts 275°
2026-04-21 22:50 33.78857 -116.75335 23765 ft 388 kts 283°
2026-04-21 22:50 33.79658 -116.78429 23305 ft 386 kts 283°
2026-04-21 22:50 33.80450 -116.81469 22770 ft 383 kts 283°
2026-04-21 22:51 33.81240 -116.84521 22260 ft 380 kts 283°
2026-04-21 22:51 33.82012 -116.87534 21726 ft 373 kts 283°
2026-04-21 22:51 33.82769 -116.90512 21015 ft 370 kts 283°
2026-04-21 22:51 33.83514 -116.93468 20298 ft 368 kts 283°
2026-04-21 22:52 33.84249 -116.96397 19860 ft 364 kts 283°
2026-04-21 22:52 33.84968 -116.99270 19432 ft 361 kts 283°
2026-04-21 22:52 33.85690 -117.02165 18957 ft 361 kts 283°
2026-04-21 22:52 33.86409 -117.05048 18545 ft 359 kts 282°
2026-04-21 22:53 33.87125 -117.07920 18125 ft 356 kts 282°
2026-04-21 22:53 33.87832 -117.10757 17696 ft 353 kts 282°
2026-04-21 22:53 33.88534 -117.13581 17297 ft 350 kts 282°
2026-04-21 22:53 33.89228 -117.16373 16947 ft 346 kts 282°
2026-04-21 22:54 33.89917 -117.19149 16569 ft 344 kts 282°
2026-04-21 22:54 33.90600 -117.21904 16201 ft 342 kts 282°
2026-04-21 22:54 33.91269 -117.24604 15838 ft 340 kts 282°
2026-04-21 22:54 33.91943 -117.27329 15483 ft 340 kts 282°
2026-04-21 22:55 33.92619 -117.30067 15126 ft 342 kts 283°
2026-04-21 22:55 33.93296 -117.32814 14762 ft 343 kts 283°
2026-04-21 22:55 33.93977 -117.35573 14415 ft 343 kts 283°
2026-04-21 22:55 33.94655 -117.38326 14047 ft 343 kts 283°
2026-04-21 22:56 33.95334 -117.41084 13650 ft 343 kts 283°
2026-04-21 22:56 33.96012 -117.43836 13253 ft 343 kts 283°
2026-04-21 22:56 33.96688 -117.46589 12878 ft 341 kts 283°
2026-04-21 22:56 33.97351 -117.49313 12495 ft 336 kts 282°
2026-04-21 22:57 33.97903 -117.52023 12134 ft 330 kts 279°
2026-04-21 22:57 33.98392 -117.54686 11811 ft 321 kts 279°
2026-04-21 22:57 33.98862 -117.57289 11474 ft 315 kts 279°
2026-04-21 22:57 33.99336 -117.59863 11151 ft 314 kts 279°
2026-04-21 22:58 33.99815 -117.62431 10826 ft 313 kts 279°
2026-04-21 22:58 34.00289 -117.64950 10485 ft 311 kts 279°
2026-04-21 22:58 34.00760 -117.67469 10158 ft 304 kts 277°
2026-04-21 22:58 34.00807 -117.69925 10097 ft 283 kts 256°
2026-04-21 22:59 34.00204 -117.72205 9884 ft 288 kts 250°
2026-04-21 22:59 34.00028 -117.74591 9718 ft 282 kts 265°
2026-04-21 22:59 33.99906 -117.76947 9105 ft 285 kts 261°
2026-04-21 22:59 33.99667 -117.79295 8767 ft 278 kts 259°
2026-04-21 23:00 33.99398 -117.81593 8380 ft 275 kts 258°
2026-04-21 23:00 33.99158 -117.83858 8079 ft 271 kts 260°
2026-04-21 23:00 33.98943 -117.86096 7825 ft 272 kts 260°
2026-04-21 23:00 33.98724 -117.88369 7495 ft 271 kts 260°
2026-04-21 23:01 33.98507 -117.90621 7151 ft 270 kts 260°
2026-04-21 23:01 33.98288 -117.92860 6873 ft 268 kts 260°
2026-04-21 23:01 33.98071 -117.95081 6587 ft 266 kts 260°
2026-04-21 23:01 33.98003 -117.95802 6484 ft 265 kts 261°
2026-04-21 23:02 33.97764 -117.99481 6006 ft 260 kts 261°
2026-04-21 23:02 33.97551 -118.01613 5719 ft 259 kts 259°
2026-04-21 23:02 33.97317 -118.03778 5452 ft 261 kts 260°
2026-04-21 23:02 33.97086 -118.05945 5181 ft 261 kts 260°
2026-04-21 23:03 33.96858 -118.08120 4860 ft 262 kts 261°
2026-04-21 23:03 33.96629 -118.10297 4558 ft 260 kts 261°
2026-04-21 23:03 33.96408 -118.12425 4285 ft 251 kts 261°
2026-04-21 23:03 33.96197 -118.14455 3963 ft 237 kts 261°
2026-04-21 23:04 33.95998 -118.16369 3652 ft 224 kts 261°
2026-04-21 23:04 33.95808 -118.18188 3368 ft 212 kts 261°
2026-04-21 23:04 33.95629 -118.19907 3102 ft 202 kts 261°
2026-04-21 23:04 33.95458 -118.21555 2843 ft 195 kts 261°
2026-04-21 23:05 33.95292 -118.23153 2574 ft 188 kts 261°
2026-04-21 23:05 33.95139 -118.24633 2353 ft 173 kts 262°
2026-04-21 23:05 33.94996 -118.26018 2126 ft 161 kts 261°
2026-04-21 23:05 33.94861 -118.27326 1922 ft 155 kts 261°
2026-04-21 23:06 33.94730 -118.28592 1761 ft 145 kts 262°
2026-04-21 23:06 33.94610 -118.29758 1538 ft 136 kts 262°
2026-04-21 23:06 33.94493 -118.30893 1351 ft 135 kts 261°
2026-04-21 23:06 33.94378 -118.32004 1146 ft 132 kts 262°
2026-04-21 23:07 33.94270 -118.33125 968 ft 138 kts 262°
2026-04-21 23:07 33.94123 -118.34265 789 ft 136 kts 262°
2026-04-21 23:07 33.94024 -118.35389 640 ft 136 kts 263°
2026-04-21 23:07 33.93910 -118.36528 439 ft 140 kts 263°
2026-04-21 23:08 33.93797 -118.37717 249 ft 143 kts 262°
2026-04-21 23:08 33.93676 -118.38872 122 ft 131 kts 263°
2026-04-21 23:08 33.93590 -118.39716 125 ft 71 kts 263°
2026-04-21 23:08 33.93564 -118.40107 122 ft 31 kts 275°
2026-04-21 23:09 33.93593 -118.40268 123 ft 15 kts 290°
2026-04-21 23:09 33.93623 -118.40353 123 ft 8 kts 288°
2026-04-21 23:09 33.93627 -118.40376 122 ft 0 kts 280°
2026-04-21 23:09 33.93628 -118.40379 122 ft 0 kts 280°
2026-04-21 23:10 33.93629 -118.40387 123 ft 3 kts 279°
2026-04-21 23:10 33.93628 -118.40435 125 ft 10 kts 262°
2026-04-21 23:10 33.93615 -118.40551 124 ft 16 kts 263°
2026-04-21 23:10 33.93602 -118.40680 125 ft 15 kts 263°
2026-04-21 23:11 33.93596 -118.40793 121 ft 13 kts 276°
2026-04-21 23:11 33.93636 -118.40883 122 ft 13 kts 330°
2026-04-21 23:11 33.93719 -118.40903 122 ft 11 kts 353°
2026-04-21 23:11 33.93780 -118.40885 124 ft 9 kts 53°
2026-04-21 23:12 33.93796 -118.40809 121 ft 11 kts 83°
2026-04-21 23:12 33.93807 -118.40694 124 ft 17 kts 83°
2026-04-21 23:12 33.93823 -118.40540 122 ft 20 kts 83°
2026-04-21 23:12 33.93839 -118.40378 122 ft 19 kts 83°
2026-04-21 23:13 33.93855 -118.40223 123 ft 18 kts 83°
2026-04-21 23:13 33.93871 -118.40073 123 ft 18 kts 83°
2026-04-21 23:13 33.93886 -118.39929 125 ft 16 kts 83°
2026-04-21 23:13 33.93896 -118.39830 122 ft 8 kts 79°
2026-04-21 23:14 33.93943 -118.39808 123 ft 8 kts 352°
2026-04-21 23:14 33.93996 -118.39820 122 ft 8 kts 352°
2026-04-21 23:14 33.94052 -118.39824 122 ft 8 kts
2026-04-21 23:14 33.94109 -118.39828 123 ft 8 kts 352°
2026-04-21 23:15 33.94153 -118.39829 123 ft 5 kts 22°
2026-04-21 23:15 33.94163 -118.39805 123 ft 3 kts 76°
2026-04-21 23:15 33.94166 -118.39783 125 ft 3 kts 80°
2026-04-21 23:15 33.94167 -118.39771 125 ft 1 kts 81°